ヴィエルチョス彗星

C/2020 H3 ( Wierzchos )

English version
Home page
Updated on July 11, 2020

---------------------------------------------------------------------

・ プロフィール

発見日 2020年4月25日
発見光度 19.1等
発見者 Kacper W. Wierzchos (Mount Lemmon Survey)

・ 写真集

・ 軌道要素

Epoch 2020 May 31.0 TT = JDT 2459000.5
T 2020 June 3.56819 TT                                  Rudenko
q   2.3043453            (2000.0)            P               Q
z  -0.0009151      Peri.   29.60812     +0.23776334     +0.39830744
 +/-0.0000245      Node   270.56882     -0.96966801     +0.15055367
e   1.0021087      Incl.   62.36794     +0.05667937     +0.90481201
From 85 observations 2020 Apr. 25-July 8, mean residual 0".4.

・ 光度変化

        m1 = 13.5 + 5 logΔ + 10.0 log r

---------------------------------------------------------------------

軌道要素はM.P.E.C. 2020-N31に掲載されたものです。
光度グラフはComet for Windowsで作成したものです。

---------------------------------------------------------------------

Copyright(C) Seiichi Yoshida (comet@aerith.net). All rights reserved.